Besuchen Sie unsere anderen Wetter Stationen:

Template documentation
and downloads

And another site


Select another period ( hide this area )

Einheiten Zeitraum Custom range Directly to
metrisch Englisch Beide
Tägliche Wöchentliche Monatliche Jährlich
use both date-selectors for a custom range
previous Tag
With this date

WeatherUnderground graphs for this period ( click here ) Loading the graph can take up to a minute!


Tägliche Zusammenfassung für Mittwoch 22 September 2021
Zeit Temp. ( °C ) Dew pt. ( °C ) Wind ( km/h ) von Windböen ( km/h ) Luftdruck ( hPa ) Humid.( % ) Rainrate ( cm ) Solar ( W/m2 )
Hoch15,7 11,0 15,0 Westen ( 349/1031 ) 15,0 1030,3 93 - 631
Durchchnittswerte9,4 7,2 6,2 Westen #60/166 5,8 1029,8 87 - 303 #79/166
Wenig6,4 5,1 -   0,0 1029,2 73 -  
Tägliche Tabular details for Mittwoch 22 September 2021
Zeit Temp. ( °C ) Dew pt. ( °C ) Wind ( km/h ) von Windböen ( km/h ) Luftdruck ( hPa ) Humid.( % ) Rainrate ( cm ) Solar ( W/m2 )
00:04 7,7 5,8 6,0 Westen 4,0 1030,3 88 - -
00:09 7,8 5,9 6,0 Westen 5,0 1030,3 88 - -
00:14 7,7 5,7 4,0 Westen 5,0 1030,3 88 - -
00:19 7,6 5,7 6,0 Westen 3,0 1030,3 88 - -
00:24 7,5 5,7 6,0 Westen 5,0 1030,2 89 - -
00:29 7,5 5,7 6,0 Westen 4,0 1030,2 89 - -
00:34 7,6 5,7 6,0 Westen 5,0 1030,2 88 - -
00:39 7,6 5,7 6,0 Westen 4,0 1030,1 88 - -
00:44 7,6 5,7 6,0 Westen 5,0 1030,1 88 - -
00:49 7,7 5,8 7,0 Westen 5,0 1030,1 88 - -
00:54 7,6 5,7 6,0 Westen 8,0 1030,1 88 - -
00:59 7,6 5,7 10,0 Westen 6,0 1030,0 88 - -
01:04 7,6 5,7 6,0 Westen 10,0 1030,1 88 - -
01:09 7,3 5,6 6,0 Westen 5,0 1030,1 89 - -
01:14 7,3 5,6 7,0 Westen 5,0 1030,0 89 - -
01:19 7,3 5,7 6,0 Westen 8,0 1030,0 89 - -
01:24 7,3 5,7 4,0 Westen 5,0 1029,8 89 - -
01:29 7,3 5,7 6,0 Westen 3,0 1029,7 89 - -
01:34 7,2 5,6 6,0 Westen 5,0 1029,8 89 - -
01:39 7,2 5,6 6,0 Westen 5,0 1029,8 89 - -
01:44 7,2 5,7 7,0 Westen 5,0 1029,7 90 - -
01:49 7,2 5,7 6,0 Westen 8,0 1029,7 90 - -
01:54 7,3 5,7 4,0 Westen 5,0 1029,7 90 - -
01:59 7,3 5,7 4,0 Westen 3,0 1029,7 90 - -
02:04 7,4 5,7 4,0 Westen 3,0 1029,7 89 - -
02:09 7,4 5,7 10,0 Westen 6,0 1029,7 89 - -
02:14 7,4 5,6 7,0 Westen 6,0 1029,7 89 - -
02:19 7,2 5,6 5,0 Westen 5,0 1029,7 89 - -
02:24 7,3 5,6 6,0 Westen 5,0 1029,8 89 - -
02:29 7,2 5,6 4,0 Westen 5,0 1029,8 89 - -
02:34 7,2 5,6 6,0 Westen 4,0 1029,8 89 - -
02:39 7,2 5,5 6,0 Westen 5,0 1029,7 89 - -
02:44 7,1 5,5 4,0 Westen 3,0 1029,7 90 - -
02:49 7,0 5,5 6,0 Westen 4,0 1029,8 90 - -
02:54 7,1 5,5 6,0 Westen 5,0 1029,8 90 - -
02:59 7,1 5,5 7,0 Westen 5,0 1029,7 90 - -
03:04 7,1 5,5 6,0 Westen 8,0 1029,7 90 - -
03:09 7,1 5,5 9,0 Westen 6,0 1029,7 90 - -
03:14 7,1 5,4 6,0 Westen 10,0 1029,6 89 - -
03:19 7,1 5,4 6,0 Westen 5,0 1029,6 89 - -
03:24 6,8 5,3 5,0 Westen 5,0 1029,6 90 - -
03:29 6,9 5,4 6,0 Westen 5,0 1029,6 90 - -
03:34 6,8 5,3 6,0 Westen 5,0 1029,6 90 - -
03:39 6,8 5,3 7,0 WNW 6,0 1029,6 90 - -
03:44 6,7 5,2 6,0 WNW 3,0 1029,5 90 - -
03:49 6,8 5,3 6,0 WNW 5,0 1029,6 90 - -
03:54 6,9 5,4 6,0 WNW 5,0 1029,5 90 - -
03:59 6,9 5,4 7,0 Westen 5,0 1029,4 90 - -
04:04 7,1 5,6 7,0 Westen 8,0 1029,4 90 - -
04:09 7,2 5,6 7,0 Westen 8,0 1029,4 90 - -
04:14 7,2 5,6 7,0 Westen 8,0 1029,4 89 - -
04:19 7,2 5,6 6,0 Westen 8,0 1029,4 89 - -
04:24 7,1 5,4 5,0 Westen 5,0 1029,3 90 - -
04:29 6,6 5,1 2,0 Westen 5,0 1029,3 91 - -
04:34 6,6 5,2 6,0 Westen 5,0 1029,3 91 - -
04:39 6,5 5,2 6,0 Westen 5,0 1029,3 91 - -
04:44 6,8 5,6 10,0 Westen 6,0 1029,3 92 - -
04:49 6,9 5,7 12,0 WNW 9,0 1029,3 92 - -
04:54 6,8 5,4 6,0 WNW 11,0 1029,4 91 - -
04:59 6,8 5,4 6,0 WNW 5,0 1029,5 91 - -
05:04 6,7 5,3 7,0 WNW 5,0 1029,4 91 - -
05:09 6,7 5,3 6,0 WNW 8,0 1029,3 91 - -
05:14 6,5 5,3 5,0 WNW 5,0 1029,4 92 - -
05:19 6,7 5,3 6,0 WNW 5,0 1029,4 92 - -
05:24 6,7 5,3 6,0 WNW 3,0 1029,4 91 - -
05:29 6,6 5,3 4,0 WNW 3,0 1029,4 92 - -
05:34 6,6 5,4 4,0 WNW 3,0 1029,4 92 - -
05:39 6,7 5,4 4,0 WNW 3,0 1029,4 92 - -
05:44 6,6 5,2 4,0 WNW 3,0 1029,4 91 - -
05:49 6,7 5,4 5,0 WNW 3,0 1029,4 92 - -
05:54 6,7 5,4 6,0 WNW 5,0 1029,4 92 - -
05:59 6,8 5,4 6,0 WNW 5,0 1029,5 91 - -
06:04 6,7 5,2 4,0 WNW 5,0 1029,5 91 - -
06:09 6,5 5,1 4,0 WNW 3,0 1029,5 91 - -
06:14 6,6 5,3 4,0 WNW 3,0 1029,5 92 - -
06:19 6,9 5,6 4,0 WNW 3,0 1029,5 92 - -
06:24 6,9 5,6 4,0 WNW 3,0 1029,5 91 - -
06:29 6,7 5,3 4,0 WNW 3,0 1029,5 91 - -
06:34 6,4 5,2 3,0 WNW 3,0 1029,5 92 - -
06:39 6,4 5,2 4,0 WNW 3,0 1029,5 92 - -
06:44 6,4 5,2 2,0 WNW 3,0 1029,5 92 - -
06:49 6,4 5,2 2,0 WNW 2,0 1029,5 92 - -
06:54 6,5 5,3 4,0 WNW 2,0 1029,6 92 - -
06:59 6,5 5,3 2,0 WNW 3,0 1029,6 92 - -
07:04 6,7 5,5 4,0 WNW 2,0 1029,6 92 - -
07:09 6,7 5,5 2,0 WNW 3,0 1029,7 92 - -
07:14 6,6 5,4 3,0 WNW 2,0 1029,7 92 - -
07:19 6,7 5,5 4,0 WNW 3,0 1029,7 92 - 7
07:24 6,7 5,5 6,0 WNW 3,0 1029,8 92 - 12
07:29 6,7 5,4 6,0 WNW 5,0 1029,8 92 - 16
07:34 6,7 5,3 7,0 WNW 5,0 1029,8 91 - 21
07:39 6,7 5,3 4,0 WNW 8,0 1029,8 91 - 26
07:44 7,0 5,8 4,0 WNW 4,0 1029,7 92 - 32
07:49 7,1 5,8 4,0 WNW 3,0 1029,7 92 - 39
07:54 6,8 5,4 2,0 WNW 3,0 1029,8 91 - 46
07:59 6,9 5,7   Windstille 2,0 1030,3 92 - 51
08:04 6,9 5,5   Windstille   1029,9 91 - 56
08:09 6,9 5,6 4,0 WNW 2,0 1029,9 91 - 60
08:14 6,9 5,6 2,0 WNW 3,0 1030,0 91 - 63
08:19 7,1 5,8   Windstille   1030,0 92 - 67
08:24 7,3 6,1   Windstille   1030,0 92 - 72
08:29 7,6 6,3   Windstille   1030,0 92 - 77
08:34 7,8 6,6   Windstille   1029,9 92 - 84
08:39 8,1 6,8   Windstille   1029,9 92 - 91
08:44 8,3 7,1   Windstille   1029,9 92 - 97
08:49 8,5 7,3   Windstille   1029,9 92 - 100
08:54 8,6 7,3   Windstille   1029,9 92 - 114
08:59 8,7 7,5   Windstille   1029,9 92 - 146
09:04 9,1 7,8   Windstille   1030,0 93 - 171
09:09 9,4 8,2   Windstille   1030,0 92 - 200
09:14 9,6 8,2   Windstille   1030,1 92 - 192
09:19 9,9 8,5   Windstille   1030,0 91 - 185
09:24 10,2 8,8   Windstille   1030,1 91 - 213
09:29 10,7 9,2 6,0 Westen 4,0 1030,0 91 - 213
09:34 11,1 9,1 4,0 Westen 5,0 1030,1 89 - 206
09:39 11,4 9,5 2,0 Westen 3,0 1030,0 88 - 206
09:44 11,7 9,5 4,0 Westen 2,0 1030,1 88 - 216
09:49 11,9 9,3 4,0 Westen 3,0 1030,1 85 - 241
09:54 12,3 9,8 4,0 Westen 3,0 1030,1 85 - 264
09:59 12,4 9,8 4,0 Westen 3,0 1030,1 84 - 287
10:04 12,7 10,3 6,0 NW 4,0 1030,0 85 - 313
10:09 12,8 10,5 7,0 NNO 5,0 1030,0 86 - 364
10:14 13,0 10,3 6,0 NO 8,0 1030,0 84 - 381
10:19 13,4 10,2 8,0 NO 5,0 1030,0 83 - 408
10:24 13,8 10,4 9,0 NO 10,0 1030,0 80 - 396
10:29 13,9 10,1 15,0 NO 13,0 1030,1 78 - 408
10:34 13,9 10,0 14,0 NNO 15,0 1030,0 77 - 408
10:39 13,8 9,9 15,0 NO 13,0 1030,1 77 - 330
10:44 13,8 9,9 14,0 NNO 15,0 1030,0 78 - 341
10:49 13,7 9,9 15,0 NO 13,0 1030,0 78 - 355
10:54 13,7 9,8 15,0 NNO 15,0 1030,0 78 - 403
10:59 13,7 10,2 11,0 NO 13,0 1030,0 79 - 385
11:04 13,8 10,2 10,0 NO 10,0 1029,9 79 - 343
11:09 13,7 9,7 9,0 NO 10,0 1030,0 77 - 318
11:14 13,7 9,9 9,0 NO 8,0 1030,0 78 - 318
11:19 13,7 9,9 10,0 NO 10,0 1030,0 78 - 315
11:24 13,6 9,7 10,0 NO 10,0 1030,1 77 - 311
11:29 13,6 9,4 10,0 NO 10,0 1030,1 76 - 294
11:34 13,7 9,7 9,0 NNO 7,0 1030,0 77 - 292
11:39 13,8 9,8 8,0 NO 10,0 1029,9 77 - 341
11:44 13,8 9,9 9,0 NO 10,0 1030,0 77 - 287
11:49 13,8 9,8 9,0 NO 10,0 1029,9 77 - 257
11:54 13,8 10,0 9,0 NNO 8,0 1030,0 78 - 230
11:59 13,8 10,1 9,0 NO 10,0 1030,0 78 - 475
12:04 14,4 10,6 12,0 NNO 9,0 1030,0 79 - 555
12:09 14,4 10,6 12,0 Norden 11,0 1030,0 78 - 568
12:14 14,4 10,0 14,0 Norden 11,0 1029,9 75 - 631
12:19 14,4 10,4 9,0 Norden 13,0 1029,8 77 - 631
12:24 14,9 10,7 10,0 NO 8,0 1029,7 77 - 617
12:29 15,3 11,0 10,0 NO 10,0 1029,7 76 - 631
12:34 15,3 10,9 10,0 NO 10,0 1029,7 76 - 577
12:39 15,2 10,9 10,0 NO 10,0 1029,7 76 - 506
12:44 15,1 10,7 10,0 NO 10,0 1030,1 75 - 320
12:49 14,9 10,5 9,0 NNO 10,0 1029,6 76 - 316
12:54 14,8 10,6 9,0 NNO 10,0 1029,6 76 - 480
12:59 15,1 10,8 9,0 NO 10,0 1029,5 76 - 555
13:04 15,2 10,9 12,0 NO 10,0 1029,5 76 - 552
13:09 15,3 10,4 10,0 ONO 11,0 1029,5 73 - 508
13:14 15,3 10,7 10,0 NO 10,0 1029,4 74 - 570
13:19 15,4 10,6 9,0 NO 10,0 1029,7 73 - 554
13:24 15,7 10,9 10,0 NNO 8,0 1029,4 74 - 541
13:29 15,6 10,9 15,0 NNO 11,0 1029,3 74 - 605
13:34 15,4 10,7 11,0 NO 15,0 1029,3 74 - 566
13:39 15,4 10,7 10,0 SO 8,0 1029,3 74 - 570
13:44 15,6 10,7 10,0 NNO 10,0 1029,3 73 - 504
13:49 15,7 10,8 10,0 NO 10,0 1029,2 73 - 475
Tägliche Zusammenfassung für Mittwoch 22 September 2021
Zeit Temp. ( °C ) Dew pt. ( °C ) Wind ( km/h ) von Windböen ( km/h ) Luftdruck ( hPa ) Humid.( % ) Rainrate ( cm ) Solar ( W/m2 )
Hoch15,7 11,0 15,0 Westen ( 349/1031 ) 15,0 1030,3 93 - 631
Durchchnittswerte9,4 7,2 6,2 Westen #60/166 5,8 1029,8 87 - 303 #79/166
Wenig6,4 5,1 -   0,0 1029,2 73 -  
Tägliche Tabular details for Mittwoch 22 September 2021
Zeit Temp. ( °C ) Dew pt. ( °C ) Wind ( km/h ) von Windböen ( km/h ) Luftdruck ( hPa ) Humid.( % ) Rainrate ( cm ) Solar ( W/m2 )
00:04 7,7 5,8 6,0 Westen 4,0 1030,3 88 - -
00:09 7,8 5,9 6,0 Westen 5,0 1030,3 88 - -
00:14 7,7 5,7 4,0 Westen 5,0 1030,3 88 - -
00:19 7,6 5,7 6,0 Westen 3,0 1030,3 88 - -
00:24 7,5 5,7 6,0 Westen 5,0 1030,2 89 - -
00:29 7,5 5,7 6,0 Westen 4,0 1030,2 89 - -
00:34 7,6 5,7 6,0 Westen 5,0 1030,2 88 - -
00:39 7,6 5,7 6,0 Westen 4,0 1030,1 88 - -
00:44 7,6 5,7 6,0 Westen 5,0 1030,1 88 - -
00:49 7,7 5,8 7,0 Westen 5,0 1030,1 88 - -
00:54 7,6 5,7 6,0 Westen 8,0 1030,1 88 - -
00:59 7,6 5,7 10,0 Westen 6,0 1030,0 88 - -
01:04 7,6 5,7 6,0 Westen 10,0 1030,1 88 - -
01:09 7,3 5,6 6,0 Westen 5,0 1030,1 89 - -
01:14 7,3 5,6 7,0 Westen 5,0 1030,0 89 - -
01:19 7,3 5,7 6,0 Westen 8,0 1030,0 89 - -
01:24 7,3 5,7 4,0 Westen 5,0 1029,8 89 - -
01:29 7,3 5,7 6,0 Westen 3,0 1029,7 89 - -
01:34 7,2 5,6 6,0 Westen 5,0 1029,8 89 - -
01:39 7,2 5,6 6,0 Westen 5,0 1029,8 89 - -
01:44 7,2 5,7 7,0 Westen 5,0 1029,7 90 - -
01:49 7,2 5,7 6,0 Westen 8,0 1029,7 90 - -
01:54 7,3 5,7 4,0 Westen 5,0 1029,7 90 - -
01:59 7,3 5,7 4,0 Westen 3,0 1029,7 90 - -
02:04 7,4 5,7 4,0 Westen 3,0 1029,7 89 - -
02:09 7,4 5,7 10,0 Westen 6,0 1029,7 89 - -
02:14 7,4 5,6 7,0 Westen 6,0 1029,7 89 - -
02:19 7,2 5,6 5,0 Westen 5,0 1029,7 89 - -
02:24 7,3 5,6 6,0 Westen 5,0 1029,8 89 - -
02:29 7,2 5,6 4,0 Westen 5,0 1029,8 89 - -
02:34 7,2 5,6 6,0 Westen 4,0 1029,8 89 - -
02:39 7,2 5,5 6,0 Westen 5,0 1029,7 89 - -
02:44 7,1 5,5 4,0 Westen 3,0 1029,7 90 - -
02:49 7,0 5,5 6,0 Westen 4,0 1029,8 90 - -
02:54 7,1 5,5 6,0 Westen 5,0 1029,8 90 - -
02:59 7,1 5,5 7,0 Westen 5,0 1029,7 90 - -
03:04 7,1 5,5 6,0 Westen 8,0 1029,7 90 - -
03:09 7,1 5,5 9,0 Westen 6,0 1029,7 90 - -
03:14 7,1 5,4 6,0 Westen 10,0 1029,6 89 - -
03:19 7,1 5,4 6,0 Westen 5,0 1029,6 89 - -
03:24 6,8 5,3 5,0 Westen 5,0 1029,6 90 - -
03:29 6,9 5,4 6,0 Westen 5,0 1029,6 90 - -
03:34 6,8 5,3 6,0 Westen 5,0 1029,6 90 - -
03:39 6,8 5,3 7,0 WNW 6,0 1029,6 90 - -
03:44 6,7 5,2 6,0 WNW 3,0 1029,5 90 - -
03:49 6,8 5,3 6,0 WNW 5,0 1029,6 90 - -
03:54 6,9 5,4 6,0 WNW 5,0 1029,5 90 - -
03:59 6,9 5,4 7,0 Westen 5,0 1029,4 90 - -
04:04 7,1 5,6 7,0 Westen 8,0 1029,4 90 - -
04:09 7,2 5,6 7,0 Westen 8,0 1029,4 90 - -
04:14 7,2 5,6 7,0 Westen 8,0 1029,4 89 - -
04:19 7,2 5,6 6,0 Westen 8,0 1029,4 89 - -
04:24 7,1 5,4 5,0 Westen 5,0 1029,3 90 - -
04:29 6,6 5,1 2,0 Westen 5,0 1029,3 91 - -
04:34 6,6 5,2 6,0 Westen 5,0 1029,3 91 - -
04:39 6,5 5,2 6,0 Westen 5,0 1029,3 91 - -
04:44 6,8 5,6 10,0 Westen 6,0 1029,3 92 - -
04:49 6,9 5,7 12,0 WNW 9,0 1029,3 92 - -
04:54 6,8 5,4 6,0 WNW 11,0 1029,4 91 - -
04:59 6,8 5,4 6,0 WNW 5,0 1029,5 91 - -
05:04 6,7 5,3 7,0 WNW 5,0 1029,4 91 - -
05:09 6,7 5,3 6,0 WNW 8,0 1029,3 91 - -
05:14 6,5 5,3 5,0 WNW 5,0 1029,4 92 - -
05:19 6,7 5,3 6,0 WNW 5,0 1029,4 92 - -
05:24 6,7 5,3 6,0 WNW 3,0 1029,4 91 - -
05:29 6,6 5,3 4,0 WNW 3,0 1029,4 92 - -
05:34 6,6 5,4 4,0 WNW 3,0 1029,4 92 - -
05:39 6,7 5,4 4,0 WNW 3,0 1029,4 92 - -
05:44 6,6 5,2 4,0 WNW 3,0 1029,4 91 - -
05:49 6,7 5,4 5,0 WNW 3,0 1029,4 92 - -
05:54 6,7 5,4 6,0 WNW 5,0 1029,4 92 - -
05:59 6,8 5,4 6,0 WNW 5,0 1029,5 91 - -
06:04 6,7 5,2 4,0 WNW 5,0 1029,5 91 - -
06:09 6,5 5,1 4,0 WNW 3,0 1029,5 91 - -
06:14 6,6 5,3 4,0 WNW 3,0 1029,5 92 - -
06:19 6,9 5,6 4,0 WNW 3,0 1029,5 92 - -
06:24 6,9 5,6 4,0 WNW 3,0 1029,5 91 - -
06:29 6,7 5,3 4,0 WNW 3,0 1029,5 91 - -
06:34 6,4 5,2 3,0 WNW 3,0 1029,5 92 - -
06:39 6,4 5,2 4,0 WNW 3,0 1029,5 92 - -
06:44 6,4 5,2 2,0 WNW 3,0 1029,5 92 - -
06:49 6,4 5,2 2,0 WNW 2,0 1029,5 92 - -
06:54 6,5 5,3 4,0 WNW 2,0 1029,6 92 - -
06:59 6,5 5,3 2,0 WNW 3,0 1029,6 92 - -
07:04 6,7 5,5 4,0 WNW 2,0 1029,6 92 - -
07:09 6,7 5,5 2,0 WNW 3,0 1029,7 92 - -
07:14 6,6 5,4 3,0 WNW 2,0 1029,7 92 - -
07:19 6,7 5,5 4,0 WNW 3,0 1029,7 92 - 7
07:24 6,7 5,5 6,0 WNW 3,0 1029,8 92 - 12
07:29 6,7 5,4 6,0 WNW 5,0 1029,8 92 - 16
07:34 6,7 5,3 7,0 WNW 5,0 1029,8 91 - 21
07:39 6,7 5,3 4,0 WNW 8,0 1029,8 91 - 26
07:44 7,0 5,8 4,0 WNW 4,0 1029,7 92 - 32
07:49 7,1 5,8 4,0 WNW 3,0 1029,7 92 - 39
07:54 6,8 5,4 2,0 WNW 3,0 1029,8 91 - 46
07:59 6,9 5,7   Windstille 2,0 1030,3 92 - 51
08:04 6,9 5,5   Windstille   1029,9 91 - 56
08:09 6,9 5,6 4,0 WNW 2,0 1029,9 91 - 60
08:14 6,9 5,6 2,0 WNW 3,0 1030,0 91 - 63
08:19 7,1 5,8   Windstille   1030,0 92 - 67
08:24 7,3 6,1   Windstille   1030,0 92 - 72
08:29 7,6 6,3   Windstille   1030,0 92 - 77
08:34 7,8 6,6   Windstille   1029,9 92 - 84
08:39 8,1 6,8   Windstille   1029,9 92 - 91
08:44 8,3 7,1   Windstille   1029,9 92 - 97
08:49 8,5 7,3   Windstille   1029,9 92 - 100
08:54 8,6 7,3   Windstille   1029,9 92 - 114
08:59 8,7 7,5   Windstille   1029,9 92 - 146
09:04 9,1 7,8   Windstille   1030,0 93 - 171
09:09 9,4 8,2   Windstille   1030,0 92 - 200
09:14 9,6 8,2   Windstille   1030,1 92 - 192
09:19 9,9 8,5   Windstille   1030,0 91 - 185
09:24 10,2 8,8   Windstille   1030,1 91 - 213
09:29 10,7 9,2 6,0 Westen 4,0 1030,0 91 - 213
09:34 11,1 9,1 4,0 Westen 5,0 1030,1 89 - 206
09:39 11,4 9,5 2,0 Westen 3,0 1030,0 88 - 206
09:44 11,7 9,5 4,0 Westen 2,0 1030,1 88 - 216
09:49 11,9 9,3 4,0 Westen 3,0 1030,1 85 - 241
09:54 12,3 9,8 4,0 Westen 3,0 1030,1 85 - 264
09:59 12,4 9,8 4,0 Westen 3,0 1030,1 84 - 287
10:04 12,7 10,3 6,0 NW 4,0 1030,0 85 - 313
10:09 12,8 10,5 7,0 NNO 5,0 1030,0 86 - 364
10:14 13,0 10,3 6,0 NO 8,0 1030,0 84 - 381
10:19 13,4 10,2 8,0 NO 5,0 1030,0 83 - 408
10:24 13,8 10,4 9,0 NO 10,0 1030,0 80 - 396
10:29 13,9 10,1 15,0 NO 13,0 1030,1 78 - 408
10:34 13,9 10,0 14,0 NNO 15,0 1030,0 77 - 408
10:39 13,8 9,9 15,0 NO 13,0 1030,1 77 - 330
10:44 13,8 9,9 14,0 NNO 15,0 1030,0 78 - 341
10:49 13,7 9,9 15,0 NO 13,0 1030,0 78 - 355
10:54 13,7 9,8 15,0 NNO 15,0 1030,0 78 - 403
10:59 13,7 10,2 11,0 NO 13,0 1030,0 79 - 385
11:04 13,8 10,2 10,0 NO 10,0 1029,9 79 - 343
11:09 13,7 9,7 9,0 NO 10,0 1030,0 77 - 318
11:14 13,7 9,9 9,0 NO 8,0 1030,0 78 - 318
11:19 13,7 9,9 10,0 NO 10,0 1030,0 78 - 315
11:24 13,6 9,7 10,0 NO 10,0 1030,1 77 - 311
11:29 13,6 9,4 10,0 NO 10,0 1030,1 76 - 294
11:34 13,7 9,7 9,0 NNO 7,0 1030,0 77 - 292
11:39 13,8 9,8 8,0 NO 10,0 1029,9 77 - 341
11:44 13,8 9,9 9,0 NO 10,0 1030,0 77 - 287
11:49 13,8 9,8 9,0 NO 10,0 1029,9 77 - 257
11:54 13,8 10,0 9,0 NNO 8,0 1030,0 78 - 230
11:59 13,8 10,1 9,0 NO 10,0 1030,0 78 - 475
12:04 14,4 10,6 12,0 NNO 9,0 1030,0 79 - 555
12:09 14,4 10,6 12,0 Norden 11,0 1030,0 78 - 568
12:14 14,4 10,0 14,0 Norden 11,0 1029,9 75 - 631
12:19 14,4 10,4 9,0 Norden 13,0 1029,8 77 - 631
12:24 14,9 10,7 10,0 NO 8,0 1029,7 77 - 617
12:29 15,3 11,0 10,0 NO 10,0 1029,7 76 - 631
12:34 15,3 10,9 10,0 NO 10,0 1029,7 76 - 577
12:39 15,2 10,9 10,0 NO 10,0 1029,7 76 - 506
12:44 15,1 10,7 10,0 NO 10,0 1030,1 75 - 320
12:49 14,9 10,5 9,0 NNO 10,0 1029,6 76 - 316
12:54 14,8 10,6 9,0 NNO 10,0 1029,6 76 - 480
12:59 15,1 10,8 9,0 NO 10,0 1029,5 76 - 555
13:04 15,2 10,9 12,0 NO 10,0 1029,5 76 - 552
13:09 15,3 10,4 10,0 ONO 11,0 1029,5 73 - 508
13:14 15,3 10,7 10,0 NO 10,0 1029,4 74 - 570
13:19 15,4 10,6 9,0 NO 10,0 1029,7 73 - 554
13:24 15,7 10,9 10,0 NNO 8,0 1029,4 74 - 541
13:29 15,6 10,9 15,0 NNO 11,0 1029,3 74 - 605
13:34 15,4 10,7 11,0 NO 15,0 1029,3 74 - 566
13:39 15,4 10,7 10,0 SO 8,0 1029,3 74 - 570
13:44 15,6 10,7 10,0 NNO 10,0 1029,3 73 - 504
13:49 15,7 10,8 10,0 NO 10,0 1029,2 73 - 475

Download your copy of this data-set  here

Our weather-data as stored at Weather Underground. Script entwickelt von Jim McMurry. Angepasst für das Template von Leuven-Template.eu

Sie finden unser Wetter-Infos auch auf:

netzwerkwettercom

European Weather Network

WeatherCloud

Weather Underground

AWEKAS

Citizen Weather Observer Program (CWOP)

HAMweather, WeatherForYou, PWS Weather

Von uns verwendete Ausrüstung:

Wetterstation
Davis VP2

Wetterprogramm
Weather Display

Davis VP2

Weather Display